WetterOnline ( http://www.wetteronline.at )

Wetter aktuell München

Aktuelles Wetter: München/Stadt (535m)

6-stündlich | Neueste Meldungen
Ortszeit Temperatur Wetter
Mi, 23.01. 19:00 -3.7° C bedeckt
Mi, 23.01. 13:00 -3.8° C bedeckt
Mi, 23.01. 7:00 -4.7° C bedeckt
Mi, 23.01. 1:00 -4.7° C bedeckt
Di, 22.01. 19:00 -3.3° C bedeckt
Di, 22.01. 13:00 -2.4° C bedeckt
Di, 22.01. 7:00 -4.4° C bedeckt
Di, 22.01. 1:00 -3.3° C bedeckt
Ortszeit Temperatur Wetter
Mi, 23.01. 19:10 -3.7° C bedeckt
Mi, 23.01. 19:00 -3.7° C bedeckt
Mi, 23.01. 18:50 -3.7° C bedeckt
Mi, 23.01. 18:40 -3.6° C bedeckt
Mi, 23.01. 18:30 -3.7° C bedeckt
Mi, 23.01. 18:20 -3.7° C bedeckt
Mi, 23.01. 18:00 -3.6° C bedeckt
Mi, 23.01. 17:30 -3.6° C bedeckt
Mi, 23.01. 17:00 -3.4° C bedeckt
Mi, 23.01. 16:30 -3.5° C bedeckt
Ortszeit Relative Feuchte Sichtweite
Mi, 23.01. 19:00 78% 8 km
Mi, 23.01. 13:00 83% 6 km
Mi, 23.01. 7:00 89% 5.0 km
Mi, 23.01. 1:00 89% 4.5 km
Di, 22.01. 19:00 82% 10 km
Di, 22.01. 13:00 79% 9 km
Di, 22.01. 7:00 97% 1.1 km
Di, 22.01. 1:00 90% 4.4 km
Ortszeit Relative Feuchte Sichtweite
Mi, 23.01. 19:10 80% -
Mi, 23.01. 19:00 78% 8 km
Mi, 23.01. 18:50 78% -
Mi, 23.01. 18:40 78% -
Mi, 23.01. 18:30 77% 9 km
Mi, 23.01. 18:20 77% -
Mi, 23.01. 18:00 77% 9 km
Mi, 23.01. 17:30 74% 11 km
Mi, 23.01. 17:00 74% 11 km
Mi, 23.01. 16:30 75% 10 km
Ortszeit Niederschlagsmenge Niederschlagsart
Mi, 23.01. 19:00 0.0 l/m2 in 12 Std. -
Mi, 23.01. 13:00 0.0 l/m2 in 6 Std. -
Mi, 23.01. 7:00 0.0 l/m2 in 12 Std. -
Mi, 23.01. 1:00 0.0 l/m2 in 6 Std. -
Di, 22.01. 19:00 0.1 l/m2 in 12 Std. -
Di, 22.01. 13:00 0.1 l/m2 in 6 Std. Schnee
Di, 22.01. 7:00 0.1 l/m2 in 12 Std. Schnee
Di, 22.01. 1:00 0.0 l/m2 in 6 Std. -
Ortszeit Niederschlagsmenge Niederschlagsart
Mi, 23.01. 19:10 keine Meldung -
Mi, 23.01. 19:00 0.0 l/m2 in 1 Std. -
Mi, 23.01. 18:50 keine Meldung -
Mi, 23.01. 18:40 keine Meldung -
Mi, 23.01. 18:30 0.0 l/m2 in 1 Std. -
Mi, 23.01. 18:20 keine Meldung -
Mi, 23.01. 18:00 0.0 l/m2 in 1 Std. -
Mi, 23.01. 17:30 0.0 l/m2 in 1 Std. -
Mi, 23.01. 17:00 0.0 l/m2 in 1 Std. -
Mi, 23.01. 16:30 0.0 l/m2 in 1 Std. -
Ortszeit Stärke Spitze Richtung
km/h Bft. km/h Grad Sektor
Mi, 23.01. 19:00 9 2 15 60° NO
Mi, 23.01. 13:00 9 2 15 60° NO
Mi, 23.01. 7:00 7 2 11 70° O
Mi, 23.01. 1:00 4 1 22 90° O
Di, 22.01. 19:00 11 2 25 80° O
Di, 22.01. 13:00 4 1 14 230° SW
Di, 22.01. 7:00 4 1 14 330° NW
Di, 22.01. 1:00 6 1 15 250° W
Ortszeit Stärke Spitze Richtung
km/h Bft. km/h Grad Sektor
Mi, 23.01. 19:10 7 2 - 60° NO
Mi, 23.01. 19:00 9 2 13 60° NO
Mi, 23.01. 18:50 9 2 - 60° NO
Mi, 23.01. 18:40 7 2 - 60° NO
Mi, 23.01. 18:30 7 2 11 50° NO
Mi, 23.01. 18:20 7 2 - 50° NO
Mi, 23.01. 18:00 7 2 11 30° NO
Mi, 23.01. 17:30 7 2 11 40° NO
Mi, 23.01. 17:00 6 1 11 50° NO
Mi, 23.01. 16:30 6 1 11 30° NO
Ortszeit Untergrenze Bedeckung Gattung
total tief tief mittel hoch
Mi, 23.01. 19:00 480 m 8/8 8/8 - - -
Mi, 23.01. 13:00 240 m 8/8 8/8 - - -
Mi, 23.01. 7:00 150 m 8/8 8/8 - - -
Mi, 23.01. 1:00 150 m 8/8 8/8 - - -
Di, 22.01. 19:00 300 m 8/8 8/8 - - -
Di, 22.01. 13:00 300 m 8/8 8/8 - - -
Di, 22.01. 7:00 30 m 8/8 8/8 - - -
Di, 22.01. 1:00 150 m 8/8 8/8 - - -
Ortszeit Bedeckungsgrad in Achtel und Wolkenuntergrenze
Mi, 23.01. 19:10 8(510m)
Mi, 23.01. 19:00 8(480m)
Mi, 23.01. 18:50 8(480m)
Mi, 23.01. 18:40 8(450m)
Mi, 23.01. 18:30 8(450m)
Mi, 23.01. 18:20 8(450m)
Mi, 23.01. 18:00 8(480m)
Mi, 23.01. 17:30 8(510m)
Mi, 23.01. 17:00 8(510m)
Mi, 23.01. 16:30 8(480m)
Ortszeit Luftdruck NN (hPa) Tendenz (hPa in 3 Std.)
Mi, 23.01. 19:00 1000 + 1,1
Mi, 23.01. 13:00 999 - 1,2
Mi, 23.01. 7:00 1001 - 1,5
Mi, 23.01. 1:00 1005 - 1,8
Di, 22.01. 19:00 1008 - 2,0
Di, 22.01. 13:00 1013 - 2,4
Di, 22.01. 7:00 1017 - 1,5
Di, 22.01. 1:00 1020 - 0,7
Ortszeit Luftdruck NN (hPa) Tendenz (hPa in 3 Std.)
Mi, 23.01. 19:10 1000 keine Meldung
Mi, 23.01. 19:00 1000 + 1,1
Mi, 23.01. 18:50 1000 keine Meldung
Mi, 23.01. 18:40 1000 keine Meldung
Mi, 23.01. 18:30 1000 + 1,1
Mi, 23.01. 18:20 1000 keine Meldung
Mi, 23.01. 18:00 1000 + 1,0
Mi, 23.01. 17:30 999 + 1,0
Mi, 23.01. 17:00 999 + 0,7
Mi, 23.01. 16:30 999 + 0,3
Ortszeit Schneehöhe (cm)
Mi, 23.01. 19:00 3
Mi, 23.01. 13:00 3
Mi, 23.01. 7:00 3
Mi, 23.01. 1:00 3
Di, 22.01. 19:00 3
Di, 22.01. 13:00 3
Di, 22.01. 7:00 3
Di, 22.01. 1:00 3
Ortszeit Schneehöhe (cm)
Mi, 23.01. 19:10 3
Mi, 23.01. 19:00 3
Mi, 23.01. 18:50 3
Mi, 23.01. 18:40 3
Mi, 23.01. 18:30 3
Mi, 23.01. 18:20 3
Mi, 23.01. 18:00 3
Mi, 23.01. 17:30 3
Mi, 23.01. 17:00 3
Mi, 23.01. 16:30 3
Link zu dieser Seite / Seite empfehlen

Das Wetter in ...